Back to catalog

DELTA 1 R/B

AliveLEO
NORAD 50·ROCKET BODY·🇺🇸 United States

Launched Aug 12, 1960 from Cape Canaveral Space Force Station

Loading…

Next Passes (next 24 hours)

TLE

FreshSource: Space-Track

Epoch: Sep 14, 2026, 01:32 UTC

1 00050U 60009B   26257.06421044 -.00000128  00000-0 -41225-3 0  9993
2 00050  47.2296 245.8550 0114405 279.9184  78.8708 12.20169627948556

Track DELTA 1 R/B in real time with AllMySat

Download on the App Store